Weather History for KIRK - November, 2012

Change the Weather History Date:

Thursday, November 22, 2012

  Actual Average Record
Temperature  
Mean Temperature 55 °F 37 °F  
Max Temperature 68 °F 47 °F 71 °F (2010)
Min Temperature 41 °F 28 °F -1 °F (1937)
Degree Days  
Heating Degree Days 10 28  
Month to date heating degree days 435 497  
Since 1 July heating degree days 1014 986  
Cooling Degree Days 0 0  
Month to date cooling degree days 2 0  
Year to date cooling degree days 1321 939  
Growing Degree Days 4 (Base 50)    
Moisture  
Dew Point 40 °F    
Average Humidity 61    
Maximum Humidity 76    
Minimum Humidity 46    
Precipitation  
Precipitation T in 0.06 in 1.40 in (1963)
Month to date precipitation 1.73 2.09  
Year to date precipitation 26.42 36.93  
Sea Level Pressure  
Sea Level Pressure 29.97 in    
Wind  
Wind Speed 14 mph (SW)    
Max Wind Speed 25 mph    
Max Gust Speed 33 mph    
Visibility 10 miles    
Events Rain    
T = Trace of Precipitation, MM = Missing Value Source: NWS Daily Summary

Daily Weather History Graph

Daily Weather History Graph

Search for Another Location

Airport or City:

Trip Planner

Search our weather history database for the weather conditions in past years. The results will help you decide how hot, cold, wet, or windy it might be!

Date:

Astronomy

Nov. 22, 2012 Rise Set
Actual Time 7:04 AM CST 4:48 PM CST
Civil Twilight 6:34 AM CST 5:18 PM CST
Nautical Twilight 6:01 AM CST 5:51 PM CST
Astronomical Twilight 5:28 AM CST 6:23 PM CST
Moon 1:34 PM CST (11/22) 1:24 AM CST (11/22)
Length of Visible Light 10h 43m
Length of Day
9h 44m
Waxing Gibbous, 71% of the Moon is Illuminated
Nov 22
Waxing Gibbous
Nov 28
Full
Dec 6
Last Quarter
Dec 13
New
Dec 19
First Quarter

Hourly Weather History & Observations

Time (CST) Temp. Windchill Dew Point Humidity Pressure Visibility Wind Dir Wind Speed Gust Speed Precip Events Conditions
12:55 AM 43.0 °F 36.8 °F 36.0 °F 76% 30.02 in 10.0 mi SSE 11.5 mph - N/A   Clear
1:55 AM 42.1 °F 36.6 °F 36.0 °F 79% 30.01 in 10.0 mi SSE 9.2 mph - N/A   Clear
2:55 AM 43.0 °F 37.2 °F 36.0 °F 76% 29.99 in 10.0 mi SSE 10.4 mph - N/A   Clear
3:55 AM 44.1 °F 39.5 °F 37.0 °F 76% 29.97 in 10.0 mi SSE 8.1 mph - N/A   Clear
4:55 AM 51.1 °F - 37.0 °F 59% 29.95 in 10.0 mi South 11.5 mph 19.6 mph N/A   Scattered Clouds
5:55 AM 53.1 °F - 37.9 °F 57% 29.94 in 10.0 mi South 12.7 mph - N/A   Partly Cloudy
6:55 AM 54.0 °F - 37.9 °F 55% 29.92 in 10.0 mi South 15.0 mph 21.9 mph N/A   Mostly Cloudy
7:55 AM 54.0 °F - 39.0 °F 57% 29.91 in 10.0 mi South 15.0 mph 20.7 mph N/A   Scattered Clouds
8:55 AM 57.9 °F - 41.0 °F 53% 29.91 in 10.0 mi South 17.3 mph 24.2 mph N/A   Clear
9:55 AM 57.9 °F - 42.1 °F 56% 29.91 in 10.0 mi SSW 12.7 mph 21.9 mph N/A   Clear
10:55 AM 60.1 °F - 44.1 °F 55% 29.89 in 10.0 mi SSW 15.0 mph 24.2 mph N/A   Clear
11:55 AM 64.0 °F - 46.0 °F 52% 29.87 in 10.0 mi SW 21.9 mph 32.2 mph N/A   Clear
12:55 PM 66.0 °F - 46.9 °F 50% 29.84 in 10.0 mi SSW 19.6 mph 28.8 mph N/A   Clear
1:55 PM 64.9 °F - 46.9 °F 52% 29.83 in 10.0 mi SW 15.0 mph 27.6 mph N/A   Clear
2:55 PM 64.0 °F - 48.9 °F 58% 29.84 in 9.0 mi SW 10.4 mph 21.9 mph 0.00 in Rain Light Rain
3:55 PM 64.0 °F - 50.0 °F 60% 29.87 in 10.0 mi WSW 11.5 mph 20.7 mph 0.00 in   Clear
4:55 PM 63.0 °F - 50.0 °F 63% 29.90 in 10.0 mi SW 8.1 mph - N/A   Overcast
5:55 PM 61.0 °F - 39.9 °F 46% 29.96 in 10.0 mi NW 17.3 mph 29.9 mph N/A   Overcast
6:55 PM 55.0 °F - 37.9 °F 53% 30.01 in 10.0 mi NW 21.9 mph 32.2 mph N/A   Mostly Cloudy
7:55 PM 50.0 °F - 36.0 °F 59% 30.07 in 10.0 mi NW 10.4 mph 20.7 mph N/A   Clear
8:55 PM 48.0 °F - 34.0 °F 58% 30.11 in 10.0 mi NW 19.6 mph 28.8 mph N/A   Clear
9:55 PM 45.0 °F 37.9 °F 34.0 °F 65% 30.14 in 10.0 mi NW 16.1 mph 25.3 mph N/A   Clear
10:55 PM 43.0 °F 36.8 °F 33.1 °F 68% 30.17 in 10.0 mi NW 11.5 mph - N/A   Clear
11:55 PM 42.1 °F 34.2 °F 32.0 °F 67% 30.19 in 10.0 mi WNW 16.1 mph 25.3 mph N/A   Clear